[[{"header":{"parameterUnit":"m.s-1","parameterCategory":1,"la1":30.2991,"la2":30.254,"lo1":-89.0895,"lo2":-89.0444,"dy":0.0017,"dx":0.0017,"nx":28,"ny":28,"refTime":"2024-04-06T21:00:00:Z","depth":0,"parameterNumber":2,"parameterNumberName":"U-component_of_WINDS"},"data":[0,0,0,0,0,0,0,0,0,0,0,0,0,0,0,0,0,0,0,0,0,0,0,0,0,0,0,0,0,0,0,0,0,0,0,0,0,0,0,0,0,0,0,0,0,0,0,0,0,0,0,0,0,0,0,0,0,0,-1.2834,-1.2833,0,-1.2775,-1.2775,-1.2774,-1.2734,-1.2734,-1.2734,-1.2733,-1.2672,-1.2671,-1.267,0,0,0,0,0,0,0,0,0,0,0,0,0,-1.2912,-1.291,-1.2834,-1.2833,-1.2833,-1.2776,-1.2775,-1.2774,-1.2734,-1.2734,-1.2734,-1.2733,-1.2673,-1.2671,-1.267,0,0,0,0,0,0,0,0,0,0,0,0,0,-1.2868,-1.291,-1.2834,-1.2806,-1.2803,-1.2776,-1.2775,-1.2774,-1.2734,-1.2734,-1.2733,-1.2733,-1.2673,-1.2671,-1.2669,-1.2665,0,0,-1.2663,-1.2662,0,0,0,0,0,0,0,0,-1.2871,-1.2865,-1.2811,-1.2808,-1.2804,-1.2762,-1.278,-1.2737,-1.2734,-1.276,-1.2733,-1.2733,-1.2702,-1.2698,-1.2688,-1.2662,-1.266,-1.2663,-1.2662,-1.2661,-1.266,0,0,0,0,0,0,0,-1.2874,-1.2867,-1.2811,-1.281,-1.2806,-1.2796,-1.279,-1.2771,-1.2734,-1.2758,-1.2755,-1.2749,-1.27,-1.269,-1.2686,-1.2659,-1.2663,-1.2661,-1.266,-1.2659,-1.2627,-1.2628,0,0,0,0,0,0,-1.2881,-1.287,-1.2813,-1.2809,-1.2837,-1.2795,-1.2788,-1.2776,-1.2735,-1.2728,-1.2749,-1.2747,-1.2694,-1.2688,-1.2684,-1.2676,-1.2661,-1.2659,-1.2658,-1.2627,-1.2627,-1.2628,0,0,0,0,0,0,-1.2883,-1.2876,-1.2815,-1.2839,-1.283,-1.2794,-1.2781,-1.2775,-1.2764,-1.2728,-1.2721,-1.2745,-1.2693,-1.2687,-1.267,-1.2673,-1.2658,-1.2656,-1.2626,-1.2627,-1.2627,-1.2661,0,0,0,0,0,0,-1.2885,-1.2877,-1.2875,-1.2839,-1.2829,-1.2803,-1.2781,-1.2774,-1.2761,-1.2758,-1.2722,-1.2716,-1.2692,-1.2673,-1.2668,-1.267,-1.2655,-1.2626,-1.2627,-1.2627,-1.2659,-1.2662,-1.2665,0,0,0,0,0,-1.2888,-1.2887,-1.2875,-1.2869,-1.2826,-1.2803,-1.2797,-1.277,-1.2761,-1.2759,-1.2736,-1.2717,-1.2674,-1.2672,-1.2666,-1.2667,-1.2626,-1.2626,-1.2627,-1.2658,-1.2662,-1.2665,0,0,0,0,0,0,-1.2924,-1.2882,-1.2868,-1.2855,-1.2833,-1.2796,-1.2792,-1.2775,-1.2755,-1.2753,-1.272,-1.2712,-1.2699,-1.2682,-1.268,-1.2661,-1.2648,-1.2647,-1.2673,-1.2676,-1.2679,-1.2684,-1.2653,0,0,0,0,0,-1.293,-1.2915,-1.2879,-1.2871,-1.2861,-1.2829,-1.2818,-1.2799,-1.2774,-1.2765,-1.274,-1.2717,-1.2698,-1.2686,-1.2667,-1.2657,-1.2648,-1.2655,-1.2658,-1.2661,-1.266,-1.2654,-1.2656,-1.263,-1.263,-1.263,0,0,-1.2943,-1.2918,-1.2911,-1.2878,-1.2858,-1.2843,-1.2821,-1.2806,-1.2794,-1.2762,-1.2745,-1.2727,-1.2699,-1.2685,-1.2678,-1.267,-1.2666,-1.2662,-1.2664,-1.2662,-1.2655,-1.2657,-1.2659,-1.2631,-1.2631,-1.2631,0,0,-1.2959,-1.2939,-1.293,-1.2911,-1.2882,-1.2861,-1.2859,-1.2825,-1.2811,-1.2794,-1.277,-1.2756,-1.2724,-1.2705,-1.2691,-1.2701,-1.2683,-1.2696,-1.2711,-1.2705,-1.2707,-1.2708,-1.2711,-1.2713,-1.2696,-1.2696,-1.2696,0,-1.2978,-1.2955,-1.2927,-1.2914,-1.29,-1.2871,-1.2861,-1.2845,-1.2811,-1.2802,-1.2794,-1.2754,-1.2733,-1.2715,-1.2717,-1.2707,-1.2704,-1.2699,-1.2709,-1.271,-1.2711,-1.2714,-1.2715,-1.2698,-1.2697,-1.2697,-1.2697,0,-1.298,-1.2965,-1.2961,-1.2929,-1.2915,-1.2904,-1.2874,-1.2863,-1.2846,-1.2826,-1.2809,-1.2783,-1.2758,-1.2753,-1.2736,-1.2732,-1.2728,-1.2715,-1.27,-1.2716,-1.2718,-1.2718,-1.27,-1.2699,-1.2699,-1.2699,0,0,-1.3016,-1.297,-1.2969,-1.2954,-1.2921,-1.2908,-1.2896,-1.2872,-1.2863,-1.2841,-1.2829,-1.2804,-1.2792,-1.2776,-1.2757,-1.2751,-1.2761,-1.2739,-1.2738,-1.2743,-1.2755,-1.2765,-1.2766,-1.2749,-1.2749,-1.2749,-1.2757,0,-1.3026,-1.3002,-1.2977,-1.2962,-1.2947,-1.292,-1.2909,-1.2887,-1.2868,-1.2853,-1.2832,-1.2814,-1.28,-1.279,-1.2784,-1.2761,-1.2762,-1.276,-1.2737,-1.2737,-1.2745,-1.2767,-1.2777,-1.2786,-1.2758,-1.2758,-1.2758,0,-1.3034,-1.3014,-1.2998,-1.2966,-1.2959,-1.2949,-1.2926,-1.2911,-1.2886,-1.2873,-1.2856,-1.2836,-1.2821,-1.2809,-1.2789,-1.2788,-1.2777,-1.2765,-1.2765,-1.2761,-1.2748,-1.2764,-1.2788,-1.279,-1.2759,-1.2759,-1.2759,0,-1.3061,-1.303,-1.3016,-1.3005,-1.2967,-1.2962,-1.2946,-1.292,-1.2908,-1.2887,-1.2878,-1.2856,-1.2844,-1.2827,-1.2802,-1.2795,-1.2784,-1.277,-1.2772,-1.2773,-1.277,-1.277,-1.2793,-1.2765,-1.2765,-1.2765,-1.2765,0,-1.3075,-1.3066,-1.3028,-1.3019,-1.3008,-1.298,-1.297,-1.2952,-1.293,-1.2917,-1.2892,-1.2881,-1.2848,-1.2832,-1.2812,-1.2798,-1.2793,-1.2782,-1.2776,-1.2784,-1.2785,-1.2776,-1.2774,-1.2765,-1.2765,-1.2765,-1.2765,0,-1.3103,-1.3077,-1.306,-1.3027,-1.3018,-1.3011,-1.2982,-1.2973,-1.2953,-1.2938,-1.2932,-1.2901,-1.2882,-1.2855,-1.2827,-1.2814,-1.2802,-1.2794,-1.2811,-1.2808,-1.2811,-1.2811,-1.2828,-1.2829,-1.2801,-1.2801,-1.2801,0,-1.3113,-1.3105,-1.3071,-1.3061,-1.3046,-1.303,-1.3017,-1.2989,-1.2977,-1.2948,-1.2943,-1.2922,-1.2903,-1.2874,-1.2848,-1.2827,-1.2818,-1.2825,-1.2814,-1.2822,-1.2817,-1.2818,-1.2817,-1.2828,-1.2828,-1.2829,-1.2829,0,-1.3133,-1.3121,-1.3104,-1.3082,-1.3068,-1.3049,-1.3029,-1.3022,-1.299,-1.2978,-1.2958,-1.2944,-1.2916,-1.2895,-1.2871,-1.2854,-1.2836,-1.2833,-1.2832,-1.2839,-1.2849,-1.2843,-1.2817,-1.2832,-1.2832,-1.2832,-1.2831,-1.2831,-1.3152,-1.3144,-1.3119,-1.3101,-1.3083,-1.3065,-1.3055,-1.3034,-1.3017,-1.2993,-1.2977,-1.2958,-1.2934,-1.2899,-1.2884,-1.2868,-1.2861,-1.286,-1.286,-1.286,-1.2862,-1.2852,-1.2864,-1.2864,-1.2863,-1.2863,-1.2863,0,-1.3171,-1.3154,-1.3137,-1.3111,-1.3096,-1.3081,-1.3059,-1.3047,-1.3031,-1.301,-1.2993,-1.297,-1.295,-1.2924,-1.2902,-1.2895,-1.2886,-1.289,-1.289,-1.2886,-1.287,-1.2873,-1.2897,-1.2897,-1.2897,-1.2897,-1.2897,-1.2897,-1.3179,-1.3165,-1.315,-1.3127,-1.311,-1.3091,-1.308,-1.3063,-1.3046,-1.3022,-1.3006,-1.2989,-1.2965,-1.2942,-1.2923,-1.2915,-1.2908,-1.2915,-1.2905,-1.289,-1.2887,-1.2884,-1.2886,-1.2914,-1.2914,-1.2922,-1.2922,-1.2922]},{"header":{"parameterUnit":"m.s-1","parameterCategory":1,"la1":30.2991,"la2":30.254,"lo1":-89.0895,"lo2":-89.0444,"dy":0.0017,"dx":0.0017,"nx":28,"ny":28,"refTime":"2024-04-06T21:00:00:Z","depth":0,"parameterNumber":3,"parameterNumberName":"V-component_of_WINDS"},"data":[0,0,0,0,0,0,0,0,0,0,0,0,0,0,0,0,0,0,0,0,0,0,0,0,0,0,0,0,0,0,0,0,0,0,0,0,0,0,0,0,0,0,0,0,0,0,0,0,0,0,0,0,0,0,0,0,0,0,3.1034,3.1034,0,3.1023,3.1023,3.1023,3.0988,3.0987,3.0987,3.0986,3.0973,3.0973,3.0974,0,0,0,0,0,0,0,0,0,0,0,0,0,3.1027,3.1027,3.1034,3.1034,3.1034,3.1023,3.1023,3.1023,3.0988,3.0987,3.0986,3.0986,3.0973,3.0973,3.0974,0,0,0,0,0,0,0,0,0,0,0,0,0,3.1024,3.1027,3.1034,3.1016,3.1014,3.1023,3.1023,3.1023,3.0988,3.0987,3.0986,3.0985,3.0973,3.0973,3.0974,3.0999,0,0,3.0975,3.0975,0,0,0,0,0,0,0,0,3.1024,3.1024,3.1019,3.1017,3.1015,3.1006,3.1015,3.1015,3.0989,3.0998,3.0986,3.0985,3.0985,3.0984,3.0984,3.0999,3.0998,3.0975,3.0976,3.0976,3.0976,0,0,0,0,0,0,0,3.1024,3.1025,3.103,3.1019,3.1016,3.1008,3.1006,3.1015,3.0998,3.0997,3.0995,3.0994,3.0983,3.0984,3.0984,3.0998,3.0975,3.0976,3.0976,3.0976,3.1034,3.1035,0,0,0,0,0,0,3.1027,3.1025,3.103,3.1029,3.1017,3.1009,3.1007,3.101,3.0998,3.0995,3.0995,3.0992,3.0984,3.0983,3.0983,3.1013,3.0976,3.0976,3.0977,3.1033,3.1035,3.1036,0,0,0,0,0,0,3.1027,3.1028,3.1031,3.1027,3.1026,3.101,3.1014,3.101,3.1011,3.0996,3.0993,3.0999,3.0983,3.0982,3.0996,3.1012,3.0977,3.0977,3.1032,3.1034,3.1035,3.1073,0,0,0,0,0,0,3.1027,3.1028,3.1038,3.1027,3.1027,3.1044,3.1015,3.1011,3.1012,3.1008,3.0998,3.0996,3.0982,3.0995,3.0997,3.1012,3.0977,3.103,3.1032,3.1035,3.107,3.1076,3.1081,0,0,0,0,0,3.1027,3.1049,3.1039,3.1039,3.1038,3.1045,3.1044,3.1028,3.1013,3.1023,3.1014,3.0996,3.1011,3.0997,3.0998,3.1014,3.1029,3.1032,3.1034,3.1068,3.1075,3.1081,0,0,0,0,0,0,3.1061,3.1047,3.1035,3.1054,3.1051,3.1039,3.105,3.1036,3.1037,3.1034,3.1013,3.1011,3.1028,3.1022,3.1008,3.1039,3.1017,3.102,3.1042,3.1049,3.1054,3.1055,3.0978,0,0,0,0,0,3.1071,3.1077,3.1064,3.1082,3.1081,3.1066,3.1069,3.1057,3.1052,3.1051,3.1042,3.1039,3.1042,3.1045,3.1048,3.107,3.1067,3.1081,3.1087,3.1091,3.1094,3.1106,3.1112,3.1045,3.1045,3.1045,0,0,3.109,3.1084,3.1089,3.1089,3.1085,3.1092,3.1065,3.1074,3.1079,3.1052,3.1064,3.1058,3.1053,3.1071,3.1079,3.1067,3.1112,3.1095,3.1098,3.1099,3.111,3.1116,3.1122,3.1047,3.1046,3.1046,0,0,3.113,3.1126,3.1141,3.1138,3.1133,3.1123,3.1127,3.1117,3.1112,3.1125,3.1105,3.1111,3.1117,3.1115,3.1114,3.1155,3.1139,3.1157,3.1184,3.1196,3.1202,3.1206,3.1221,3.1227,3.116,3.116,3.116,0,3.1156,3.1166,3.115,3.116,3.1161,3.1138,3.1153,3.1151,3.1146,3.1148,3.1135,3.1144,3.1138,3.1156,3.1166,3.1167,3.117,3.1158,3.1202,3.1207,3.1211,3.1225,3.1231,3.1162,3.1162,3.1161,3.1161,0,3.1198,3.1206,3.1218,3.1216,3.1218,3.1231,3.1216,3.1221,3.1209,3.1201,3.1214,3.1207,3.1209,3.1212,3.12,3.1228,3.1221,3.1206,3.1183,3.122,3.1233,3.1238,3.1165,3.1164,3.1164,3.1163,0,0,3.1257,3.1247,3.1252,3.1251,3.1245,3.125,3.1263,3.1265,3.1269,3.1267,3.1277,3.1284,3.127,3.127,3.1258,3.1268,3.1302,3.1251,3.1251,3.1261,3.1333,3.1345,3.1352,3.1292,3.1293,3.1294,3.1334,0,3.1295,3.1316,3.1302,3.1324,3.1332,3.1311,3.1321,3.1318,3.1311,3.1317,3.1309,3.1314,3.1295,3.1295,3.1304,3.1296,3.1316,3.1293,3.1301,3.1301,3.1303,3.1358,3.1371,3.1409,3.1339,3.134,3.134,0,3.1342,3.1344,3.1368,3.1361,3.1364,3.1373,3.1375,3.138,3.1377,3.1371,3.1372,3.1357,3.1369,3.1347,3.1363,3.1347,3.135,3.1346,3.1347,3.1347,3.1323,3.136,3.1421,3.1427,3.1348,3.1347,3.1347,0,3.1384,3.1392,3.1408,3.1407,3.14,3.1408,3.1405,3.1401,3.1403,3.1404,3.1406,3.1408,3.141,3.1412,3.1399,3.1384,3.1417,3.1393,3.1412,3.1413,3.1419,3.1419,3.1482,3.1421,3.1421,3.1421,3.1421,0,3.1428,3.1443,3.1426,3.1436,3.1453,3.1437,3.1454,3.1449,3.1446,3.1454,3.1436,3.1444,3.1426,3.1432,3.1422,3.1437,3.1438,3.1433,3.143,3.1435,3.1436,3.1436,3.1433,3.1423,3.1422,3.1422,3.1422,0,3.1477,3.1466,3.1482,3.1474,3.1473,3.1485,3.1479,3.1487,3.148,3.149,3.1492,3.148,3.1486,3.1474,3.1478,3.1472,3.1493,3.1486,3.1494,3.1492,3.1512,3.151,3.1577,3.1585,3.1519,3.152,3.152,0,3.1505,3.1517,3.1511,3.1516,3.1514,3.1522,3.1525,3.151,3.1514,3.1512,3.1521,3.1527,3.153,3.1542,3.1533,3.1537,3.153,3.1553,3.153,3.1535,3.153,3.153,3.1531,3.1557,3.1558,3.1559,3.1559,0,3.1558,3.1552,3.1558,3.1562,3.1566,3.1568,3.1569,3.1574,3.1558,3.1564,3.1571,3.1574,3.1579,3.1585,3.1587,3.1584,3.1569,3.1567,3.1571,3.1576,3.1581,3.1579,3.1507,3.1565,3.1565,3.1564,3.1564,3.1564,3.1597,3.1607,3.1605,3.1612,3.1611,3.1613,3.1621,3.1615,3.1621,3.1625,3.1616,3.1625,3.1623,3.1624,3.1623,3.163,3.162,3.1626,3.1628,3.163,3.1633,3.158,3.163,3.163,3.163,3.163,3.163,0,3.1649,3.1647,3.1654,3.1656,3.1662,3.1649,3.1649,3.1655,3.1663,3.1663,3.1667,3.1676,3.1682,3.1674,3.1679,3.1686,3.168,3.1688,3.1687,3.1687,3.1642,3.1638,3.1693,3.1693,3.1693,3.1693,3.1693,3.1693,3.1676,3.1693,3.1687,3.1703,3.1701,3.1711,3.1712,3.1714,3.1713,3.1724,3.1729,3.1725,3.1722,3.1726,3.1731,3.1729,3.1731,3.1742,3.1737,3.1696,3.169,3.1684,3.168,3.1742,3.1743,3.1781,3.1781,3.1782]}]]